Index of /20260426/WXO-DD/model_rdps/10km/18/022
Name Last modified Size Description
Parent Directory -
20260426T18Z_MSC_RDPS_AbsoluteVorticity_IsbL-0250_RLatLon0.09_PT022H.grib2 2026-04-26 21:26 599K
20260426T18Z_MSC_RDPS_AbsoluteVorticity_IsbL-0500_RLatLon0.09_PT022H.grib2 2026-04-26 21:26 554K
20260426T18Z_MSC_RDPS_AbsoluteVorticity_IsbL-0700_RLatLon0.09_PT022H.grib2 2026-04-26 21:26 618K
20260426T18Z_MSC_RDPS_AbsoluteVorticity_IsbL-0850_RLatLon0.09_PT022H.grib2 2026-04-26 21:26 784K
20260426T18Z_MSC_RDPS_AirTemp_AGL-120m_RLatLon0.09_PT022H.grib2 2026-04-26 21:26 386K
20260426T18Z_MSC_RDPS_AirTemp_AGL-2m_RLatLon0.09_PT022H.grib2 2026-04-26 21:26 644K
20260426T18Z_MSC_RDPS_AirTemp_AGL-40m_RLatLon0.09_PT022H.grib2 2026-04-26 21:26 410K
20260426T18Z_MSC_RDPS_AirTemp_AGL-80m_RLatLon0.09_PT022H.grib2 2026-04-26 21:26 406K
20260426T18Z_MSC_RDPS_AirTemp_IsbL-0001_RLatLon0.09_PT022H.grib2 2026-04-26 21:26 278K
20260426T18Z_MSC_RDPS_AirTemp_IsbL-0005_RLatLon0.09_PT022H.grib2 2026-04-26 21:26 330K
20260426T18Z_MSC_RDPS_AirTemp_IsbL-0010_RLatLon0.09_PT022H.grib2 2026-04-26 21:26 302K
20260426T18Z_MSC_RDPS_AirTemp_IsbL-0020_RLatLon0.09_PT022H.grib2 2026-04-26 21:26 319K
20260426T18Z_MSC_RDPS_AirTemp_IsbL-0030_RLatLon0.09_PT022H.grib2 2026-04-26 21:26 335K
20260426T18Z_MSC_RDPS_AirTemp_IsbL-0050_RLatLon0.09_PT022H.grib2 2026-04-26 21:26 317K
20260426T18Z_MSC_RDPS_AirTemp_IsbL-0100_RLatLon0.09_PT022H.grib2 2026-04-26 21:26 419K
20260426T18Z_MSC_RDPS_AirTemp_IsbL-0150_RLatLon0.09_PT022H.grib2 2026-04-26 21:26 413K
20260426T18Z_MSC_RDPS_AirTemp_IsbL-0175_RLatLon0.09_PT022H.grib2 2026-04-26 21:26 404K
20260426T18Z_MSC_RDPS_AirTemp_IsbL-0200_RLatLon0.09_PT022H.grib2 2026-04-26 21:26 411K
20260426T18Z_MSC_RDPS_AirTemp_IsbL-0225_RLatLon0.09_PT022H.grib2 2026-04-26 21:26 414K
20260426T18Z_MSC_RDPS_AirTemp_IsbL-0250_RLatLon0.09_PT022H.grib2 2026-04-26 21:26 420K
20260426T18Z_MSC_RDPS_AirTemp_IsbL-0275_RLatLon0.09_PT022H.grib2 2026-04-26 21:26 401K
20260426T18Z_MSC_RDPS_AirTemp_IsbL-0300_RLatLon0.09_PT022H.grib2 2026-04-26 21:26 406K
20260426T18Z_MSC_RDPS_AirTemp_IsbL-0350_RLatLon0.09_PT022H.grib2 2026-04-26 21:26 417K
20260426T18Z_MSC_RDPS_AirTemp_IsbL-0400_RLatLon0.09_PT022H.grib2 2026-04-26 21:26 417K
20260426T18Z_MSC_RDPS_AirTemp_IsbL-0450_RLatLon0.09_PT022H.grib2 2026-04-26 21:26 425K
20260426T18Z_MSC_RDPS_AirTemp_IsbL-0500_RLatLon0.09_PT022H.grib2 2026-04-26 21:26 437K
20260426T18Z_MSC_RDPS_AirTemp_IsbL-0550_RLatLon0.09_PT022H.grib2 2026-04-26 21:26 420K
20260426T18Z_MSC_RDPS_AirTemp_IsbL-0600_RLatLon0.09_PT022H.grib2 2026-04-26 21:26 437K
20260426T18Z_MSC_RDPS_AirTemp_IsbL-0650_RLatLon0.09_PT022H.grib2 2026-04-26 21:26 452K
20260426T18Z_MSC_RDPS_AirTemp_IsbL-0700_RLatLon0.09_PT022H.grib2 2026-04-26 21:26 479K
20260426T18Z_MSC_RDPS_AirTemp_IsbL-0750_RLatLon0.09_PT022H.grib2 2026-04-26 21:26 412K
20260426T18Z_MSC_RDPS_AirTemp_IsbL-0800_RLatLon0.09_PT022H.grib2 2026-04-26 21:26 463K
20260426T18Z_MSC_RDPS_AirTemp_IsbL-0850_RLatLon0.09_PT022H.grib2 2026-04-26 21:26 510K
20260426T18Z_MSC_RDPS_AirTemp_IsbL-0875_RLatLon0.09_PT022H.grib2 2026-04-26 21:26 525K
20260426T18Z_MSC_RDPS_AirTemp_IsbL-0900_RLatLon0.09_PT022H.grib2 2026-04-26 21:26 532K
20260426T18Z_MSC_RDPS_AirTemp_IsbL-0925_RLatLon0.09_PT022H.grib2 2026-04-26 21:26 533K
20260426T18Z_MSC_RDPS_AirTemp_IsbL-0950_RLatLon0.09_PT022H.grib2 2026-04-26 21:26 536K
20260426T18Z_MSC_RDPS_AirTemp_IsbL-0970_RLatLon0.09_PT022H.grib2 2026-04-26 21:26 535K
20260426T18Z_MSC_RDPS_AirTemp_IsbL-0985_RLatLon0.09_PT022H.grib2 2026-04-26 21:26 529K
20260426T18Z_MSC_RDPS_AirTemp_IsbL-1000_RLatLon0.09_PT022H.grib2 2026-04-26 21:26 511K
20260426T18Z_MSC_RDPS_AirTemp_IsbL-1015_RLatLon0.09_PT022H.grib2 2026-04-26 21:26 506K
20260426T18Z_MSC_RDPS_Albedo_Sfc_RLatLon0.09_PT022H.grib2 2026-04-26 21:26 165K
20260426T18Z_MSC_RDPS_CAPE_Sfc_RLatLon0.09_PT022H.grib2 2026-04-26 21:26 1.8M
20260426T18Z_MSC_RDPS_CIN_Sfc_RLatLon0.09_PT022H.grib2 2026-04-26 21:26 1.1M
20260426T18Z_MSC_RDPS_CloudWater_EAtm_RLatLon0.09_PT022H.grib2 2026-04-26 21:26 217K
20260426T18Z_MSC_RDPS_ConvectivePrecip-Accum_Sfc_RLatLon0.09_PT022H.grib2 2026-04-26 21:26 863K
20260426T18Z_MSC_RDPS_DewPointDepression_AGL-2m_RLatLon0.09_PT022H.grib2 2026-04-26 21:26 422K
20260426T18Z_MSC_RDPS_DewPointDepression_IsbL-0001_RLatLon0.09_PT022H.grib2 2026-04-26 21:26 193
20260426T18Z_MSC_RDPS_DewPointDepression_IsbL-0005_RLatLon0.09_PT022H.grib2 2026-04-26 21:26 193
20260426T18Z_MSC_RDPS_DewPointDepression_IsbL-0010_RLatLon0.09_PT022H.grib2 2026-04-26 21:26 193
20260426T18Z_MSC_RDPS_DewPointDepression_IsbL-0020_RLatLon0.09_PT022H.grib2 2026-04-26 21:26 193
20260426T18Z_MSC_RDPS_DewPointDepression_IsbL-0030_RLatLon0.09_PT022H.grib2 2026-04-26 21:26 193
20260426T18Z_MSC_RDPS_DewPointDepression_IsbL-0050_RLatLon0.09_PT022H.grib2 2026-04-26 21:26 90K
20260426T18Z_MSC_RDPS_DewPointDepression_IsbL-0100_RLatLon0.09_PT022H.grib2 2026-04-26 21:26 123K
20260426T18Z_MSC_RDPS_DewPointDepression_IsbL-0150_RLatLon0.09_PT022H.grib2 2026-04-26 21:26 147K
20260426T18Z_MSC_RDPS_DewPointDepression_IsbL-0175_RLatLon0.09_PT022H.grib2 2026-04-26 21:26 176K
20260426T18Z_MSC_RDPS_DewPointDepression_IsbL-0200_RLatLon0.09_PT022H.grib2 2026-04-26 21:26 218K
20260426T18Z_MSC_RDPS_DewPointDepression_IsbL-0225_RLatLon0.09_PT022H.grib2 2026-04-26 21:26 260K
20260426T18Z_MSC_RDPS_DewPointDepression_IsbL-0250_RLatLon0.09_PT022H.grib2 2026-04-26 21:26 297K
20260426T18Z_MSC_RDPS_DewPointDepression_IsbL-0275_RLatLon0.09_PT022H.grib2 2026-04-26 21:26 306K
20260426T18Z_MSC_RDPS_DewPointDepression_IsbL-0300_RLatLon0.09_PT022H.grib2 2026-04-26 21:26 323K
20260426T18Z_MSC_RDPS_DewPointDepression_IsbL-0350_RLatLon0.09_PT022H.grib2 2026-04-26 21:26 328K
20260426T18Z_MSC_RDPS_DewPointDepression_IsbL-0400_RLatLon0.09_PT022H.grib2 2026-04-26 21:26 341K
20260426T18Z_MSC_RDPS_DewPointDepression_IsbL-0450_RLatLon0.09_PT022H.grib2 2026-04-26 21:26 352K
20260426T18Z_MSC_RDPS_DewPointDepression_IsbL-0500_RLatLon0.09_PT022H.grib2 2026-04-26 21:26 356K
20260426T18Z_MSC_RDPS_DewPointDepression_IsbL-0550_RLatLon0.09_PT022H.grib2 2026-04-26 21:26 364K
20260426T18Z_MSC_RDPS_DewPointDepression_IsbL-0600_RLatLon0.09_PT022H.grib2 2026-04-26 21:26 376K
20260426T18Z_MSC_RDPS_DewPointDepression_IsbL-0650_RLatLon0.09_PT022H.grib2 2026-04-26 21:26 381K
20260426T18Z_MSC_RDPS_DewPointDepression_IsbL-0700_RLatLon0.09_PT022H.grib2 2026-04-26 21:26 395K
20260426T18Z_MSC_RDPS_DewPointDepression_IsbL-0750_RLatLon0.09_PT022H.grib2 2026-04-26 21:26 423K
20260426T18Z_MSC_RDPS_DewPointDepression_IsbL-0800_RLatLon0.09_PT022H.grib2 2026-04-26 21:26 458K
20260426T18Z_MSC_RDPS_DewPointDepression_IsbL-0850_RLatLon0.09_PT022H.grib2 2026-04-26 21:26 483K
20260426T18Z_MSC_RDPS_DewPointDepression_IsbL-0875_RLatLon0.09_PT022H.grib2 2026-04-26 21:26 482K
20260426T18Z_MSC_RDPS_DewPointDepression_IsbL-0900_RLatLon0.09_PT022H.grib2 2026-04-26 21:26 471K
20260426T18Z_MSC_RDPS_DewPointDepression_IsbL-0925_RLatLon0.09_PT022H.grib2 2026-04-26 21:26 462K
20260426T18Z_MSC_RDPS_DewPointDepression_IsbL-0950_RLatLon0.09_PT022H.grib2 2026-04-26 21:26 455K
20260426T18Z_MSC_RDPS_DewPointDepression_IsbL-0970_RLatLon0.09_PT022H.grib2 2026-04-26 21:26 448K
20260426T18Z_MSC_RDPS_DewPointDepression_IsbL-0985_RLatLon0.09_PT022H.grib2 2026-04-26 21:26 444K
20260426T18Z_MSC_RDPS_DewPointDepression_IsbL-1000_RLatLon0.09_PT022H.grib2 2026-04-26 21:26 439K
20260426T18Z_MSC_RDPS_DewPointDepression_IsbL-1015_RLatLon0.09_PT022H.grib2 2026-04-26 21:26 433K
20260426T18Z_MSC_RDPS_DewPoint_AGL-2m_RLatLon0.09_PT022H.grib2 2026-04-26 21:26 409K
20260426T18Z_MSC_RDPS_DownwardLongwaveRadiationFlux-Accum_Sfc_RLatLon0.09_PT022H.grib2 2026-04-26 21:26 433K
20260426T18Z_MSC_RDPS_DownwardShortwaveRadiationFlux-Accum_NTAtm_RLatLon0.09_PT022H.grib2 2026-04-26 21:26 120K
20260426T18Z_MSC_RDPS_DownwardShortwaveRadiationFlux-Accum_Sfc_RLatLon0.09_PT022H.grib2 2026-04-26 21:26 625K
20260426T18Z_MSC_RDPS_FreezingRain-Accum1h_Sfc_RLatLon0.09_PT022H.grib2 2026-04-26 21:26 27K
20260426T18Z_MSC_RDPS_FreezingRain-Accum_Sfc_RLatLon0.09_PT022H.grib2 2026-04-26 21:26 106K
20260426T18Z_MSC_RDPS_GeopotentialHeight_IsbL-0001_RLatLon0.09_PT022H.grib2 2026-04-26 21:26 275K
20260426T18Z_MSC_RDPS_GeopotentialHeight_IsbL-0005_RLatLon0.09_PT022H.grib2 2026-04-26 21:26 310K
20260426T18Z_MSC_RDPS_GeopotentialHeight_IsbL-0010_RLatLon0.09_PT022H.grib2 2026-04-26 21:26 340K
20260426T18Z_MSC_RDPS_GeopotentialHeight_IsbL-0020_RLatLon0.09_PT022H.grib2 2026-04-26 21:26 306K
20260426T18Z_MSC_RDPS_GeopotentialHeight_IsbL-0030_RLatLon0.09_PT022H.grib2 2026-04-26 21:26 307K
20260426T18Z_MSC_RDPS_GeopotentialHeight_IsbL-0050_RLatLon0.09_PT022H.grib2 2026-04-26 21:26 309K
20260426T18Z_MSC_RDPS_GeopotentialHeight_IsbL-0100_RLatLon0.09_PT022H.grib2 2026-04-26 21:26 287K
20260426T18Z_MSC_RDPS_GeopotentialHeight_IsbL-0150_RLatLon0.09_PT022H.grib2 2026-04-26 21:26 226K
20260426T18Z_MSC_RDPS_GeopotentialHeight_IsbL-0175_RLatLon0.09_PT022H.grib2 2026-04-26 21:26 229K
20260426T18Z_MSC_RDPS_GeopotentialHeight_IsbL-0200_RLatLon0.09_PT022H.grib2 2026-04-26 21:26 231K
20260426T18Z_MSC_RDPS_GeopotentialHeight_IsbL-0225_RLatLon0.09_PT022H.grib2 2026-04-26 21:26 233K
20260426T18Z_MSC_RDPS_GeopotentialHeight_IsbL-0250_RLatLon0.09_PT022H.grib2 2026-04-26 21:26 265K
20260426T18Z_MSC_RDPS_GeopotentialHeight_IsbL-0275_RLatLon0.09_PT022H.grib2 2026-04-26 21:26 234K
20260426T18Z_MSC_RDPS_GeopotentialHeight_IsbL-0300_RLatLon0.09_PT022H.grib2 2026-04-26 21:26 234K
20260426T18Z_MSC_RDPS_GeopotentialHeight_IsbL-0350_RLatLon0.09_PT022H.grib2 2026-04-26 21:26 230K
20260426T18Z_MSC_RDPS_GeopotentialHeight_IsbL-0400_RLatLon0.09_PT022H.grib2 2026-04-26 21:26 227K
20260426T18Z_MSC_RDPS_GeopotentialHeight_IsbL-0450_RLatLon0.09_PT022H.grib2 2026-04-26 21:26 295K
20260426T18Z_MSC_RDPS_GeopotentialHeight_IsbL-0500_RLatLon0.09_PT022H.grib2 2026-04-26 21:26 290K
20260426T18Z_MSC_RDPS_GeopotentialHeight_IsbL-0550_RLatLon0.09_PT022H.grib2 2026-04-26 21:26 285K
20260426T18Z_MSC_RDPS_GeopotentialHeight_IsbL-0600_RLatLon0.09_PT022H.grib2 2026-04-26 21:26 282K
20260426T18Z_MSC_RDPS_GeopotentialHeight_IsbL-0650_RLatLon0.09_PT022H.grib2 2026-04-26 21:26 281K
20260426T18Z_MSC_RDPS_GeopotentialHeight_IsbL-0700_RLatLon0.09_PT022H.grib2 2026-04-26 21:26 280K
20260426T18Z_MSC_RDPS_GeopotentialHeight_IsbL-0750_RLatLon0.09_PT022H.grib2 2026-04-26 21:26 254K
20260426T18Z_MSC_RDPS_GeopotentialHeight_IsbL-0800_RLatLon0.09_PT022H.grib2 2026-04-26 21:26 261K
20260426T18Z_MSC_RDPS_GeopotentialHeight_IsbL-0850_RLatLon0.09_PT022H.grib2 2026-04-26 21:26 270K
20260426T18Z_MSC_RDPS_GeopotentialHeight_IsbL-0875_RLatLon0.09_PT022H.grib2 2026-04-26 21:26 272K
20260426T18Z_MSC_RDPS_GeopotentialHeight_IsbL-0900_RLatLon0.09_PT022H.grib2 2026-04-26 21:26 276K
20260426T18Z_MSC_RDPS_GeopotentialHeight_IsbL-0925_RLatLon0.09_PT022H.grib2 2026-04-26 21:26 280K
20260426T18Z_MSC_RDPS_GeopotentialHeight_IsbL-0950_RLatLon0.09_PT022H.grib2 2026-04-26 21:26 283K
20260426T18Z_MSC_RDPS_GeopotentialHeight_IsbL-0970_RLatLon0.09_PT022H.grib2 2026-04-26 21:26 288K
20260426T18Z_MSC_RDPS_GeopotentialHeight_IsbL-0985_RLatLon0.09_PT022H.grib2 2026-04-26 21:26 296K
20260426T18Z_MSC_RDPS_GeopotentialHeight_IsbL-1000_RLatLon0.09_PT022H.grib2 2026-04-26 21:26 307K
20260426T18Z_MSC_RDPS_GeopotentialHeight_IsbL-1015_RLatLon0.09_PT022H.grib2 2026-04-26 21:26 320K
20260426T18Z_MSC_RDPS_Humidex_Sfc_RLatLon0.09_PT022H.grib2 2026-04-26 21:26 2.4M
20260426T18Z_MSC_RDPS_IcePellets-Accum1h_Sfc_RLatLon0.09_PT022H.grib2 2026-04-26 21:26 4.8K
20260426T18Z_MSC_RDPS_IcePellets-Accum_Sfc_RLatLon0.09_PT022H.grib2 2026-04-26 21:26 14K
20260426T18Z_MSC_RDPS_KIndex_Sfc_RLatLon0.09_PT022H.grib2 2026-04-26 21:26 2.4M
20260426T18Z_MSC_RDPS_LatentHeatNetFlux_Sfc_RLatLon0.09_PT022H.grib2 2026-04-26 21:26 305K
20260426T18Z_MSC_RDPS_LiftedIndex-MU-VT_IsbL-0500_RLatLon0.09_PT022H.grib2 2026-04-26 21:26 2.4M
20260426T18Z_MSC_RDPS_NetLongwaveRadiationFlux-Accum_Sfc_RLatLon0.09_PT022H.grib2 2026-04-26 21:26 571K
20260426T18Z_MSC_RDPS_NetShortwaveRadiationFlux-Accum_Sfc_RLatLon0.09_PT022H.grib2 2026-04-26 21:26 622K
20260426T18Z_MSC_RDPS_PlanetaryBoundaryLayerHeight_Sfc_RLatLon0.09_PT022H.grib2 2026-04-26 21:26 1.2M
20260426T18Z_MSC_RDPS_Precip-Accum1h_Sfc_RLatLon0.09_PT022H.grib2 2026-04-26 21:26 1.3M
20260426T18Z_MSC_RDPS_Precip-Accum_Sfc_RLatLon0.09_PT022H.grib2 2026-04-26 21:26 1.8M
20260426T18Z_MSC_RDPS_PrecipRate_Sfc_RLatLon0.09_PT022H.grib2 2026-04-26 21:26 189K
20260426T18Z_MSC_RDPS_PrecipType-Instant_Sfc_RLatLon0.09_PT022H.grib2 2026-04-26 21:26 585K
20260426T18Z_MSC_RDPS_Pressure-Trend3h_Sfc_RLatLon0.09_PT022H.grib2 2026-04-26 21:26 1.2M
20260426T18Z_MSC_RDPS_Pressure_MSL_RLatLon0.09_PT022H.grib2 2026-04-26 21:26 299K
20260426T18Z_MSC_RDPS_Pressure_PVU-1.5_RLatLon0.09_PT022H.grib2 2026-04-26 21:26 2.5M
20260426T18Z_MSC_RDPS_Pressure_PVU-1_RLatLon0.09_PT022H.grib2 2026-04-26 21:26 2.4M
20260426T18Z_MSC_RDPS_Pressure_PVU-2_RLatLon0.09_PT022H.grib2 2026-04-26 21:26 2.4M
20260426T18Z_MSC_RDPS_Pressure_Sfc_RLatLon0.09_PT022H.grib2 2026-04-26 21:26 501K
20260426T18Z_MSC_RDPS_RadiativeTemp_Sfc_RLatLon0.09_PT022H.grib2 2026-04-26 21:26 323K
20260426T18Z_MSC_RDPS_Rain-Accum1h_Sfc_RLatLon0.09_PT022H.grib2 2026-04-26 21:26 636K
20260426T18Z_MSC_RDPS_Rain-Accum_Sfc_RLatLon0.09_PT022H.grib2 2026-04-26 21:26 1.3M
20260426T18Z_MSC_RDPS_RelativeHumidity_AGL-2m_RLatLon0.09_PT022H.grib2 2026-04-26 21:26 1.0M
20260426T18Z_MSC_RDPS_RelativeHumidity_IsbL-0010_RLatLon0.09_PT022H.grib2 2026-04-26 21:26 635K
20260426T18Z_MSC_RDPS_RelativeHumidity_IsbL-0020_RLatLon0.09_PT022H.grib2 2026-04-26 21:26 656K
20260426T18Z_MSC_RDPS_RelativeHumidity_IsbL-0030_RLatLon0.09_PT022H.grib2 2026-04-26 21:26 539K
20260426T18Z_MSC_RDPS_RelativeHumidity_IsbL-0050_RLatLon0.09_PT022H.grib2 2026-04-26 21:26 326K
20260426T18Z_MSC_RDPS_RelativeHumidity_IsbL-0100_RLatLon0.09_PT022H.grib2 2026-04-26 21:26 269K
20260426T18Z_MSC_RDPS_RelativeHumidity_IsbL-0150_RLatLon0.09_PT022H.grib2 2026-04-26 21:26 398K
20260426T18Z_MSC_RDPS_RelativeHumidity_IsbL-0175_RLatLon0.09_PT022H.grib2 2026-04-26 21:26 466K
20260426T18Z_MSC_RDPS_RelativeHumidity_IsbL-0200_RLatLon0.09_PT022H.grib2 2026-04-26 21:26 543K
20260426T18Z_MSC_RDPS_RelativeHumidity_IsbL-0225_RLatLon0.09_PT022H.grib2 2026-04-26 21:26 611K
20260426T18Z_MSC_RDPS_RelativeHumidity_IsbL-0250_RLatLon0.09_PT022H.grib2 2026-04-26 21:26 681K
20260426T18Z_MSC_RDPS_RelativeHumidity_IsbL-0275_RLatLon0.09_PT022H.grib2 2026-04-26 21:26 710K
20260426T18Z_MSC_RDPS_RelativeHumidity_IsbL-0300_RLatLon0.09_PT022H.grib2 2026-04-26 21:26 755K
20260426T18Z_MSC_RDPS_RelativeHumidity_IsbL-0350_RLatLon0.09_PT022H.grib2 2026-04-26 21:26 774K
20260426T18Z_MSC_RDPS_RelativeHumidity_IsbL-0400_RLatLon0.09_PT022H.grib2 2026-04-26 21:26 786K
20260426T18Z_MSC_RDPS_RelativeHumidity_IsbL-0450_RLatLon0.09_PT022H.grib2 2026-04-26 21:26 802K
20260426T18Z_MSC_RDPS_RelativeHumidity_IsbL-0500_RLatLon0.09_PT022H.grib2 2026-04-26 21:26 809K
20260426T18Z_MSC_RDPS_RelativeHumidity_IsbL-0550_RLatLon0.09_PT022H.grib2 2026-04-26 21:26 824K
20260426T18Z_MSC_RDPS_RelativeHumidity_IsbL-0600_RLatLon0.09_PT022H.grib2 2026-04-26 21:26 842K
20260426T18Z_MSC_RDPS_RelativeHumidity_IsbL-0650_RLatLon0.09_PT022H.grib2 2026-04-26 21:26 864K
20260426T18Z_MSC_RDPS_RelativeHumidity_IsbL-0700_RLatLon0.09_PT022H.grib2 2026-04-26 21:26 895K
20260426T18Z_MSC_RDPS_RelativeHumidity_IsbL-0750_RLatLon0.09_PT022H.grib2 2026-04-26 21:26 945K
20260426T18Z_MSC_RDPS_RelativeHumidity_IsbL-0800_RLatLon0.09_PT022H.grib2 2026-04-26 21:26 1.0M
20260426T18Z_MSC_RDPS_RelativeHumidity_IsbL-0850_RLatLon0.09_PT022H.grib2 2026-04-26 21:26 1.1M
20260426T18Z_MSC_RDPS_RelativeHumidity_IsbL-0875_RLatLon0.09_PT022H.grib2 2026-04-26 21:26 1.1M
20260426T18Z_MSC_RDPS_RelativeHumidity_IsbL-0900_RLatLon0.09_PT022H.grib2 2026-04-26 21:26 1.1M
20260426T18Z_MSC_RDPS_RelativeHumidity_IsbL-0925_RLatLon0.09_PT022H.grib2 2026-04-26 21:26 1.1M
20260426T18Z_MSC_RDPS_RelativeHumidity_IsbL-0950_RLatLon0.09_PT022H.grib2 2026-04-26 21:26 1.1M
20260426T18Z_MSC_RDPS_RelativeHumidity_IsbL-0970_RLatLon0.09_PT022H.grib2 2026-04-26 21:26 1.1M
20260426T18Z_MSC_RDPS_RelativeHumidity_IsbL-0985_RLatLon0.09_PT022H.grib2 2026-04-26 21:26 1.1M
20260426T18Z_MSC_RDPS_RelativeHumidity_IsbL-1000_RLatLon0.09_PT022H.grib2 2026-04-26 21:26 1.0M
20260426T18Z_MSC_RDPS_RelativeHumidity_IsbL-1015_RLatLon0.09_PT022H.grib2 2026-04-26 21:26 1.0M
20260426T18Z_MSC_RDPS_Runoff-Accum_Sfc_RLatLon0.09_PT022H.grib2 2026-04-26 21:26 43K
20260426T18Z_MSC_RDPS_SWEATIndex_Sfc_RLatLon0.09_PT022H.grib2 2026-04-26 21:26 2.4M
20260426T18Z_MSC_RDPS_SeeingIndex_EAtm_RLatLon0.09_PT022H.grib2 2026-04-26 21:26 1.0M
20260426T18Z_MSC_RDPS_SensibleHeatNetFlux_Sfc_RLatLon0.09_PT022H.grib2 2026-04-26 21:26 370K
20260426T18Z_MSC_RDPS_ShowalterIndex_IsbL-0500_RLatLon0.09_PT022H.grib2 2026-04-26 21:26 2.6M
20260426T18Z_MSC_RDPS_SkyTransparencyIndex_EAtm_RLatLon0.09_PT022H.grib2 2026-04-26 21:26 727K
20260426T18Z_MSC_RDPS_Snow-Accum1h_Sfc_RLatLon0.09_PT022H.grib2 2026-04-26 21:26 389K
20260426T18Z_MSC_RDPS_Snow-Accum_Sfc_RLatLon0.09_PT022H.grib2 2026-04-26 21:26 758K
20260426T18Z_MSC_RDPS_SnowDensity_Sfc_RLatLon0.09_PT022H.grib2 2026-04-26 21:26 183K
20260426T18Z_MSC_RDPS_SnowDepth_Sfc_RLatLon0.09_PT022H.grib2 2026-04-26 21:26 722K
20260426T18Z_MSC_RDPS_SoilTemp_DBS-0to10cm_RLatLon0.09_PT022H.grib2 2026-04-26 21:26 218K
20260426T18Z_MSC_RDPS_SoilTemp_Sfc_RLatLon0.09_PT022H.grib2 2026-04-26 21:26 284K
20260426T18Z_MSC_RDPS_SoilVolumetricIceContent_Sfc_RLatLon0.09_PT022H.grib2 2026-04-26 21:26 169K
20260426T18Z_MSC_RDPS_SoilVolumetricWaterContent_DBS-0to10cm_RLatLon0.09_PT022H.grib2 2026-04-26 21:26 259K
20260426T18Z_MSC_RDPS_SoilVolumetricWaterContent_DBS-0to1cm_RLatLon0.09_PT022H.grib2 2026-04-26 21:26 338K
20260426T18Z_MSC_RDPS_SpecificHumidity_AGL-120m_RLatLon0.09_PT022H.grib2 2026-04-26 21:26 499K
20260426T18Z_MSC_RDPS_SpecificHumidity_AGL-2m_RLatLon0.09_PT022H.grib2 2026-04-26 21:26 669K
20260426T18Z_MSC_RDPS_SpecificHumidity_AGL-40m_RLatLon0.09_PT022H.grib2 2026-04-26 21:26 503K
20260426T18Z_MSC_RDPS_SpecificHumidity_AGL-80m_RLatLon0.09_PT022H.grib2 2026-04-26 21:26 501K
20260426T18Z_MSC_RDPS_SpecificHumidity_IsbL-0001_RLatLon0.09_PT022H.grib2 2026-04-26 21:26 346K
20260426T18Z_MSC_RDPS_SpecificHumidity_IsbL-0005_RLatLon0.09_PT022H.grib2 2026-04-26 21:26 360K
20260426T18Z_MSC_RDPS_SpecificHumidity_IsbL-0010_RLatLon0.09_PT022H.grib2 2026-04-26 21:26 399K
20260426T18Z_MSC_RDPS_SpecificHumidity_IsbL-0020_RLatLon0.09_PT022H.grib2 2026-04-26 21:26 390K
20260426T18Z_MSC_RDPS_SpecificHumidity_IsbL-0030_RLatLon0.09_PT022H.grib2 2026-04-26 21:26 480K
20260426T18Z_MSC_RDPS_SpecificHumidity_IsbL-0050_RLatLon0.09_PT022H.grib2 2026-04-26 21:26 471K
20260426T18Z_MSC_RDPS_SpecificHumidity_IsbL-0100_RLatLon0.09_PT022H.grib2 2026-04-26 21:26 415K
20260426T18Z_MSC_RDPS_SpecificHumidity_IsbL-0150_RLatLon0.09_PT022H.grib2 2026-04-26 21:26 348K
20260426T18Z_MSC_RDPS_SpecificHumidity_IsbL-0175_RLatLon0.09_PT022H.grib2 2026-04-26 21:26 433K
20260426T18Z_MSC_RDPS_SpecificHumidity_IsbL-0200_RLatLon0.09_PT022H.grib2 2026-04-26 21:26 446K
20260426T18Z_MSC_RDPS_SpecificHumidity_IsbL-0225_RLatLon0.09_PT022H.grib2 2026-04-26 21:26 553K
20260426T18Z_MSC_RDPS_SpecificHumidity_IsbL-0250_RLatLon0.09_PT022H.grib2 2026-04-26 21:26 550K
20260426T18Z_MSC_RDPS_SpecificHumidity_IsbL-0275_RLatLon0.09_PT022H.grib2 2026-04-26 21:26 466K
20260426T18Z_MSC_RDPS_SpecificHumidity_IsbL-0300_RLatLon0.09_PT022H.grib2 2026-04-26 21:26 536K
20260426T18Z_MSC_RDPS_SpecificHumidity_IsbL-0350_RLatLon0.09_PT022H.grib2 2026-04-26 21:26 526K
20260426T18Z_MSC_RDPS_SpecificHumidity_IsbL-0400_RLatLon0.09_PT022H.grib2 2026-04-26 21:26 506K
20260426T18Z_MSC_RDPS_SpecificHumidity_IsbL-0450_RLatLon0.09_PT022H.grib2 2026-04-26 21:26 606K
20260426T18Z_MSC_RDPS_SpecificHumidity_IsbL-0500_RLatLon0.09_PT022H.grib2 2026-04-26 21:26 503K
20260426T18Z_MSC_RDPS_SpecificHumidity_IsbL-0550_RLatLon0.09_PT022H.grib2 2026-04-26 21:26 556K
20260426T18Z_MSC_RDPS_SpecificHumidity_IsbL-0600_RLatLon0.09_PT022H.grib2 2026-04-26 21:26 621K
20260426T18Z_MSC_RDPS_SpecificHumidity_IsbL-0650_RLatLon0.09_PT022H.grib2 2026-04-26 21:26 539K
20260426T18Z_MSC_RDPS_SpecificHumidity_IsbL-0700_RLatLon0.09_PT022H.grib2 2026-04-26 21:26 589K
20260426T18Z_MSC_RDPS_SpecificHumidity_IsbL-0750_RLatLon0.09_PT022H.grib2 2026-04-26 21:26 652K
20260426T18Z_MSC_RDPS_SpecificHumidity_IsbL-0800_RLatLon0.09_PT022H.grib2 2026-04-26 21:26 729K
20260426T18Z_MSC_RDPS_SpecificHumidity_IsbL-0850_RLatLon0.09_PT022H.grib2 2026-04-26 21:26 810K
20260426T18Z_MSC_RDPS_SpecificHumidity_IsbL-0875_RLatLon0.09_PT022H.grib2 2026-04-26 21:26 832K
20260426T18Z_MSC_RDPS_SpecificHumidity_IsbL-0900_RLatLon0.09_PT022H.grib2 2026-04-26 21:26 844K
20260426T18Z_MSC_RDPS_SpecificHumidity_IsbL-0925_RLatLon0.09_PT022H.grib2 2026-04-26 21:26 846K
20260426T18Z_MSC_RDPS_SpecificHumidity_IsbL-0950_RLatLon0.09_PT022H.grib2 2026-04-26 21:26 704K
20260426T18Z_MSC_RDPS_SpecificHumidity_IsbL-0970_RLatLon0.09_PT022H.grib2 2026-04-26 21:26 698K
20260426T18Z_MSC_RDPS_SpecificHumidity_IsbL-0985_RLatLon0.09_PT022H.grib2 2026-04-26 21:26 694K
20260426T18Z_MSC_RDPS_SpecificHumidity_IsbL-1000_RLatLon0.09_PT022H.grib2 2026-04-26 21:26 689K
20260426T18Z_MSC_RDPS_SpecificHumidity_IsbL-1015_RLatLon0.09_PT022H.grib2 2026-04-26 21:26 681K
20260426T18Z_MSC_RDPS_SpecificHumidity_Sfc_RLatLon0.09_PT022H.grib2 2026-04-26 21:26 332K
20260426T18Z_MSC_RDPS_StormRelativeHelicity_EtaL-10000_RLatLon0.09_PT022H.grib2 2026-04-26 21:26 1.1M
20260426T18Z_MSC_RDPS_StormSeverityIndex_EtaL-10000_RLatLon0.09_PT022H.grib2 2026-04-26 21:26 1.2M
20260426T18Z_MSC_RDPS_Thickness_IsbL-0850to0700_RLatLon0.09_PT022H.grib2 2026-04-26 21:26 177K
20260426T18Z_MSC_RDPS_Thickness_IsbL-1000to0500_RLatLon0.09_PT022H.grib2 2026-04-26 21:26 200K
20260426T18Z_MSC_RDPS_Thickness_IsbL-1000to0850_RLatLon0.09_PT022H.grib2 2026-04-26 21:26 189K
20260426T18Z_MSC_RDPS_TotalCloudCover_Sfc_RLatLon0.09_PT022H.grib2 2026-04-26 21:26 663K
20260426T18Z_MSC_RDPS_TotalTotalsIndex_Sfc_RLatLon0.09_PT022H.grib2 2026-04-26 21:26 2.4M
20260426T18Z_MSC_RDPS_UVIndex-ClearSky_Sfc_RLatLon0.09_PT022H.grib2 2026-04-26 21:26 205K
20260426T18Z_MSC_RDPS_UVIndex_Sfc_RLatLon0.09_PT022H.grib2 2026-04-26 21:26 470K
20260426T18Z_MSC_RDPS_UpwardLongwaveRadiationFlux_NTAtm_RLatLon0.09_PT022H.grib2 2026-04-26 21:26 487K
20260426T18Z_MSC_RDPS_UpwardShortwaveRadiationFlux_NTAtm_RLatLon0.09_PT022H.grib2 2026-04-26 21:26 517K
20260426T18Z_MSC_RDPS_VerticalVelocity_IsbL-0250_RLatLon0.09_PT022H.grib2 2026-04-26 21:26 570K
20260426T18Z_MSC_RDPS_VerticalVelocity_IsbL-0500_RLatLon0.09_PT022H.grib2 2026-04-26 21:26 533K
20260426T18Z_MSC_RDPS_VerticalVelocity_IsbL-0700_RLatLon0.09_PT022H.grib2 2026-04-26 21:26 585K
20260426T18Z_MSC_RDPS_VerticalVelocity_IsbL-0850_RLatLon0.09_PT022H.grib2 2026-04-26 21:26 698K
20260426T18Z_MSC_RDPS_VerticalWindShear_EtaL-6500_RLatLon0.09_PT022H.grib2 2026-04-26 21:26 1.2M
20260426T18Z_MSC_RDPS_WindChill_Sfc_RLatLon0.09_PT022H.grib2 2026-04-26 21:26 1.3M
20260426T18Z_MSC_RDPS_WindDir_AGL-10m_RLatLon0.09_PT022H.grib2 2026-04-26 21:26 1.0M
20260426T18Z_MSC_RDPS_WindDir_AGL-120m_RLatLon0.09_PT022H.grib2 2026-04-26 21:26 628K
20260426T18Z_MSC_RDPS_WindDir_AGL-40m_RLatLon0.09_PT022H.grib2 2026-04-26 21:26 652K
20260426T18Z_MSC_RDPS_WindDir_AGL-80m_RLatLon0.09_PT022H.grib2 2026-04-26 21:26 639K
20260426T18Z_MSC_RDPS_WindDir_IsbL-0001_RLatLon0.09_PT022H.grib2 2026-04-26 21:26 280K
20260426T18Z_MSC_RDPS_WindDir_IsbL-0005_RLatLon0.09_PT022H.grib2 2026-04-26 21:26 347K
20260426T18Z_MSC_RDPS_WindDir_IsbL-0010_RLatLon0.09_PT022H.grib2 2026-04-26 21:26 380K
20260426T18Z_MSC_RDPS_WindDir_IsbL-0020_RLatLon0.09_PT022H.grib2 2026-04-26 21:26 401K
20260426T18Z_MSC_RDPS_WindDir_IsbL-0030_RLatLon0.09_PT022H.grib2 2026-04-26 21:26 408K
20260426T18Z_MSC_RDPS_WindDir_IsbL-0050_RLatLon0.09_PT022H.grib2 2026-04-26 21:26 425K
20260426T18Z_MSC_RDPS_WindDir_IsbL-0100_RLatLon0.09_PT022H.grib2 2026-04-26 21:26 410K
20260426T18Z_MSC_RDPS_WindDir_IsbL-0150_RLatLon0.09_PT022H.grib2 2026-04-26 21:26 402K
20260426T18Z_MSC_RDPS_WindDir_IsbL-0175_RLatLon0.09_PT022H.grib2 2026-04-26 21:26 427K
20260426T18Z_MSC_RDPS_WindDir_IsbL-0200_RLatLon0.09_PT022H.grib2 2026-04-26 21:26 445K
20260426T18Z_MSC_RDPS_WindDir_IsbL-0225_RLatLon0.09_PT022H.grib2 2026-04-26 21:26 448K
20260426T18Z_MSC_RDPS_WindDir_IsbL-0250_RLatLon0.09_PT022H.grib2 2026-04-26 21:26 446K
20260426T18Z_MSC_RDPS_WindDir_IsbL-0275_RLatLon0.09_PT022H.grib2 2026-04-26 21:26 469K
20260426T18Z_MSC_RDPS_WindDir_IsbL-0300_RLatLon0.09_PT022H.grib2 2026-04-26 21:26 470K
20260426T18Z_MSC_RDPS_WindDir_IsbL-0350_RLatLon0.09_PT022H.grib2 2026-04-26 21:26 492K
20260426T18Z_MSC_RDPS_WindDir_IsbL-0400_RLatLon0.09_PT022H.grib2 2026-04-26 21:26 505K
20260426T18Z_MSC_RDPS_WindDir_IsbL-0450_RLatLon0.09_PT022H.grib2 2026-04-26 21:26 518K
20260426T18Z_MSC_RDPS_WindDir_IsbL-0500_RLatLon0.09_PT022H.grib2 2026-04-26 21:26 531K
20260426T18Z_MSC_RDPS_WindDir_IsbL-0550_RLatLon0.09_PT022H.grib2 2026-04-26 21:26 544K
20260426T18Z_MSC_RDPS_WindDir_IsbL-0600_RLatLon0.09_PT022H.grib2 2026-04-26 21:26 575K
20260426T18Z_MSC_RDPS_WindDir_IsbL-0650_RLatLon0.09_PT022H.grib2 2026-04-26 21:26 623K
20260426T18Z_MSC_RDPS_WindDir_IsbL-0700_RLatLon0.09_PT022H.grib2 2026-04-26 21:26 668K
20260426T18Z_MSC_RDPS_WindDir_IsbL-0750_RLatLon0.09_PT022H.grib2 2026-04-26 21:26 719K
20260426T18Z_MSC_RDPS_WindDir_IsbL-0800_RLatLon0.09_PT022H.grib2 2026-04-26 21:26 794K
20260426T18Z_MSC_RDPS_WindDir_IsbL-0850_RLatLon0.09_PT022H.grib2 2026-04-26 21:26 868K
20260426T18Z_MSC_RDPS_WindDir_IsbL-0875_RLatLon0.09_PT022H.grib2 2026-04-26 21:26 893K
20260426T18Z_MSC_RDPS_WindDir_IsbL-0900_RLatLon0.09_PT022H.grib2 2026-04-26 21:26 911K
20260426T18Z_MSC_RDPS_WindDir_IsbL-0925_RLatLon0.09_PT022H.grib2 2026-04-26 21:26 924K
20260426T18Z_MSC_RDPS_WindDir_IsbL-0950_RLatLon0.09_PT022H.grib2 2026-04-26 21:26 924K
20260426T18Z_MSC_RDPS_WindDir_IsbL-0970_RLatLon0.09_PT022H.grib2 2026-04-26 21:26 930K
20260426T18Z_MSC_RDPS_WindDir_IsbL-0985_RLatLon0.09_PT022H.grib2 2026-04-26 21:26 941K
20260426T18Z_MSC_RDPS_WindDir_IsbL-1000_RLatLon0.09_PT022H.grib2 2026-04-26 21:26 957K
20260426T18Z_MSC_RDPS_WindDir_IsbL-1015_RLatLon0.09_PT022H.grib2 2026-04-26 21:26 1.0M
20260426T18Z_MSC_RDPS_WindGust-Max_AGL-10m_RLatLon0.09_PT022H.grib2 2026-04-26 21:26 955K
20260426T18Z_MSC_RDPS_WindGust-Min_AGL-10m_RLatLon0.09_PT022H.grib2 2026-04-26 21:26 938K
20260426T18Z_MSC_RDPS_WindGust_AGL-10m_RLatLon0.09_PT022H.grib2 2026-04-26 21:26 946K
20260426T18Z_MSC_RDPS_WindSpeed_AGL-10m_RLatLon0.09_PT022H.grib2 2026-04-26 21:26 855K
20260426T18Z_MSC_RDPS_WindSpeed_AGL-120m_RLatLon0.09_PT022H.grib2 2026-04-26 21:26 554K
20260426T18Z_MSC_RDPS_WindSpeed_AGL-40m_RLatLon0.09_PT022H.grib2 2026-04-26 21:26 558K
20260426T18Z_MSC_RDPS_WindSpeed_AGL-80m_RLatLon0.09_PT022H.grib2 2026-04-26 21:26 555K
20260426T18Z_MSC_RDPS_WindSpeed_IsbL-0001_RLatLon0.09_PT022H.grib2 2026-04-26 21:26 251K
20260426T18Z_MSC_RDPS_WindSpeed_IsbL-0005_RLatLon0.09_PT022H.grib2 2026-04-26 21:26 297K
20260426T18Z_MSC_RDPS_WindSpeed_IsbL-0010_RLatLon0.09_PT022H.grib2 2026-04-26 21:26 308K
20260426T18Z_MSC_RDPS_WindSpeed_IsbL-0020_RLatLon0.09_PT022H.grib2 2026-04-26 21:26 324K
20260426T18Z_MSC_RDPS_WindSpeed_IsbL-0030_RLatLon0.09_PT022H.grib2 2026-04-26 21:26 320K
20260426T18Z_MSC_RDPS_WindSpeed_IsbL-0050_RLatLon0.09_PT022H.grib2 2026-04-26 21:26 354K
20260426T18Z_MSC_RDPS_WindSpeed_IsbL-0100_RLatLon0.09_PT022H.grib2 2026-04-26 21:26 473K
20260426T18Z_MSC_RDPS_WindSpeed_IsbL-0150_RLatLon0.09_PT022H.grib2 2026-04-26 21:26 371K
20260426T18Z_MSC_RDPS_WindSpeed_IsbL-0175_RLatLon0.09_PT022H.grib2 2026-04-26 21:26 397K
20260426T18Z_MSC_RDPS_WindSpeed_IsbL-0200_RLatLon0.09_PT022H.grib2 2026-04-26 21:26 433K
20260426T18Z_MSC_RDPS_WindSpeed_IsbL-0225_RLatLon0.09_PT022H.grib2 2026-04-26 21:26 441K
20260426T18Z_MSC_RDPS_WindSpeed_IsbL-0250_RLatLon0.09_PT022H.grib2 2026-04-26 21:26 446K
20260426T18Z_MSC_RDPS_WindSpeed_IsbL-0275_RLatLon0.09_PT022H.grib2 2026-04-26 21:26 463K
20260426T18Z_MSC_RDPS_WindSpeed_IsbL-0300_RLatLon0.09_PT022H.grib2 2026-04-26 21:26 461K
20260426T18Z_MSC_RDPS_WindSpeed_IsbL-0350_RLatLon0.09_PT022H.grib2 2026-04-26 21:26 471K
20260426T18Z_MSC_RDPS_WindSpeed_IsbL-0400_RLatLon0.09_PT022H.grib2 2026-04-26 21:26 455K
20260426T18Z_MSC_RDPS_WindSpeed_IsbL-0450_RLatLon0.09_PT022H.grib2 2026-04-26 21:26 453K
20260426T18Z_MSC_RDPS_WindSpeed_IsbL-0500_RLatLon0.09_PT022H.grib2 2026-04-26 21:26 452K
20260426T18Z_MSC_RDPS_WindSpeed_IsbL-0550_RLatLon0.09_PT022H.grib2 2026-04-26 21:26 452K
20260426T18Z_MSC_RDPS_WindSpeed_IsbL-0600_RLatLon0.09_PT022H.grib2 2026-04-26 21:26 579K
20260426T18Z_MSC_RDPS_WindSpeed_IsbL-0650_RLatLon0.09_PT022H.grib2 2026-04-26 21:26 604K
20260426T18Z_MSC_RDPS_WindSpeed_IsbL-0700_RLatLon0.09_PT022H.grib2 2026-04-26 21:26 632K
20260426T18Z_MSC_RDPS_WindSpeed_IsbL-0750_RLatLon0.09_PT022H.grib2 2026-04-26 21:26 705K
20260426T18Z_MSC_RDPS_WindSpeed_IsbL-0800_RLatLon0.09_PT022H.grib2 2026-04-26 21:26 759K
20260426T18Z_MSC_RDPS_WindSpeed_IsbL-0850_RLatLon0.09_PT022H.grib2 2026-04-26 21:26 773K
20260426T18Z_MSC_RDPS_WindSpeed_IsbL-0875_RLatLon0.09_PT022H.grib2 2026-04-26 21:26 794K
20260426T18Z_MSC_RDPS_WindSpeed_IsbL-0900_RLatLon0.09_PT022H.grib2 2026-04-26 21:26 855K
20260426T18Z_MSC_RDPS_WindSpeed_IsbL-0925_RLatLon0.09_PT022H.grib2 2026-04-26 21:26 865K
20260426T18Z_MSC_RDPS_WindSpeed_IsbL-0950_RLatLon0.09_PT022H.grib2 2026-04-26 21:26 862K
20260426T18Z_MSC_RDPS_WindSpeed_IsbL-0970_RLatLon0.09_PT022H.grib2 2026-04-26 21:26 862K
20260426T18Z_MSC_RDPS_WindSpeed_IsbL-0985_RLatLon0.09_PT022H.grib2 2026-04-26 21:26 863K
20260426T18Z_MSC_RDPS_WindSpeed_IsbL-1000_RLatLon0.09_PT022H.grib2 2026-04-26 21:26 859K
20260426T18Z_MSC_RDPS_WindSpeed_IsbL-1015_RLatLon0.09_PT022H.grib2 2026-04-26 21:26 852K
20260426T18Z_MSC_RDPS_WindU_AGL-10m_RLatLon0.09_PT022H.grib2 2026-04-26 21:26 391K
20260426T18Z_MSC_RDPS_WindU_AGL-120m_RLatLon0.09_PT022H.grib2 2026-04-26 21:26 422K
20260426T18Z_MSC_RDPS_WindU_AGL-40m_RLatLon0.09_PT022H.grib2 2026-04-26 21:26 426K
20260426T18Z_MSC_RDPS_WindU_AGL-80m_RLatLon0.09_PT022H.grib2 2026-04-26 21:26 423K
20260426T18Z_MSC_RDPS_WindU_IsbL-0001_RLatLon0.09_PT022H.grib2 2026-04-26 21:26 292K
20260426T18Z_MSC_RDPS_WindU_IsbL-0005_RLatLon0.09_PT022H.grib2 2026-04-26 21:26 333K
20260426T18Z_MSC_RDPS_WindU_IsbL-0010_RLatLon0.09_PT022H.grib2 2026-04-26 21:26 299K
20260426T18Z_MSC_RDPS_WindU_IsbL-0020_RLatLon0.09_PT022H.grib2 2026-04-26 21:26 353K
20260426T18Z_MSC_RDPS_WindU_IsbL-0030_RLatLon0.09_PT022H.grib2 2026-04-26 21:26 352K
20260426T18Z_MSC_RDPS_WindU_IsbL-0050_RLatLon0.09_PT022H.grib2 2026-04-26 21:26 383K
20260426T18Z_MSC_RDPS_WindU_IsbL-0100_RLatLon0.09_PT022H.grib2 2026-04-26 21:26 430K
20260426T18Z_MSC_RDPS_WindU_IsbL-0150_RLatLon0.09_PT022H.grib2 2026-04-26 21:26 388K
20260426T18Z_MSC_RDPS_WindU_IsbL-0175_RLatLon0.09_PT022H.grib2 2026-04-26 21:26 412K
20260426T18Z_MSC_RDPS_WindU_IsbL-0200_RLatLon0.09_PT022H.grib2 2026-04-26 21:26 329K
20260426T18Z_MSC_RDPS_WindU_IsbL-0225_RLatLon0.09_PT022H.grib2 2026-04-26 21:26 335K
20260426T18Z_MSC_RDPS_WindU_IsbL-0250_RLatLon0.09_PT022H.grib2 2026-04-26 21:26 435K
20260426T18Z_MSC_RDPS_WindU_IsbL-0275_RLatLon0.09_PT022H.grib2 2026-04-26 21:26 351K
20260426T18Z_MSC_RDPS_WindU_IsbL-0300_RLatLon0.09_PT022H.grib2 2026-04-26 21:26 348K
20260426T18Z_MSC_RDPS_WindU_IsbL-0350_RLatLon0.09_PT022H.grib2 2026-04-26 21:26 355K
20260426T18Z_MSC_RDPS_WindU_IsbL-0400_RLatLon0.09_PT022H.grib2 2026-04-26 21:26 459K
20260426T18Z_MSC_RDPS_WindU_IsbL-0450_RLatLon0.09_PT022H.grib2 2026-04-26 21:26 460K
20260426T18Z_MSC_RDPS_WindU_IsbL-0500_RLatLon0.09_PT022H.grib2 2026-04-26 21:26 459K
20260426T18Z_MSC_RDPS_WindU_IsbL-0550_RLatLon0.09_PT022H.grib2 2026-04-26 21:26 460K
20260426T18Z_MSC_RDPS_WindU_IsbL-0600_RLatLon0.09_PT022H.grib2 2026-04-26 21:26 470K
20260426T18Z_MSC_RDPS_WindU_IsbL-0650_RLatLon0.09_PT022H.grib2 2026-04-26 21:26 490K
20260426T18Z_MSC_RDPS_WindU_IsbL-0700_RLatLon0.09_PT022H.grib2 2026-04-26 21:26 513K
20260426T18Z_MSC_RDPS_WindU_IsbL-0750_RLatLon0.09_PT022H.grib2 2026-04-26 21:26 540K
20260426T18Z_MSC_RDPS_WindU_IsbL-0800_RLatLon0.09_PT022H.grib2 2026-04-26 21:26 585K
20260426T18Z_MSC_RDPS_WindU_IsbL-0850_RLatLon0.09_PT022H.grib2 2026-04-26 21:26 636K
20260426T18Z_MSC_RDPS_WindU_IsbL-0875_RLatLon0.09_PT022H.grib2 2026-04-26 21:26 653K
20260426T18Z_MSC_RDPS_WindU_IsbL-0900_RLatLon0.09_PT022H.grib2 2026-04-26 21:26 656K
20260426T18Z_MSC_RDPS_WindU_IsbL-0925_RLatLon0.09_PT022H.grib2 2026-04-26 21:26 662K
20260426T18Z_MSC_RDPS_WindU_IsbL-0950_RLatLon0.09_PT022H.grib2 2026-04-26 21:26 658K
20260426T18Z_MSC_RDPS_WindU_IsbL-0970_RLatLon0.09_PT022H.grib2 2026-04-26 21:26 656K
20260426T18Z_MSC_RDPS_WindU_IsbL-0985_RLatLon0.09_PT022H.grib2 2026-04-26 21:26 657K
20260426T18Z_MSC_RDPS_WindU_IsbL-1000_RLatLon0.09_PT022H.grib2 2026-04-26 21:26 657K
20260426T18Z_MSC_RDPS_WindU_IsbL-1015_RLatLon0.09_PT022H.grib2 2026-04-26 21:26 654K
20260426T18Z_MSC_RDPS_WindV_AGL-10m_RLatLon0.09_PT022H.grib2 2026-04-26 21:26 439K
20260426T18Z_MSC_RDPS_WindV_AGL-120m_RLatLon0.09_PT022H.grib2 2026-04-26 21:26 421K
20260426T18Z_MSC_RDPS_WindV_AGL-40m_RLatLon0.09_PT022H.grib2 2026-04-26 21:26 542K
20260426T18Z_MSC_RDPS_WindV_AGL-80m_RLatLon0.09_PT022H.grib2 2026-04-26 21:26 422K
20260426T18Z_MSC_RDPS_WindV_IsbL-0001_RLatLon0.09_PT022H.grib2 2026-04-26 21:26 265K
20260426T18Z_MSC_RDPS_WindV_IsbL-0005_RLatLon0.09_PT022H.grib2 2026-04-26 21:26 331K
20260426T18Z_MSC_RDPS_WindV_IsbL-0010_RLatLon0.09_PT022H.grib2 2026-04-26 21:26 300K
20260426T18Z_MSC_RDPS_WindV_IsbL-0020_RLatLon0.09_PT022H.grib2 2026-04-26 21:26 316K
20260426T18Z_MSC_RDPS_WindV_IsbL-0030_RLatLon0.09_PT022H.grib2 2026-04-26 21:26 316K
20260426T18Z_MSC_RDPS_WindV_IsbL-0050_RLatLon0.09_PT022H.grib2 2026-04-26 21:26 348K
20260426T18Z_MSC_RDPS_WindV_IsbL-0100_RLatLon0.09_PT022H.grib2 2026-04-26 21:26 329K
20260426T18Z_MSC_RDPS_WindV_IsbL-0150_RLatLon0.09_PT022H.grib2 2026-04-26 21:26 386K
20260426T18Z_MSC_RDPS_WindV_IsbL-0175_RLatLon0.09_PT022H.grib2 2026-04-26 21:26 318K
20260426T18Z_MSC_RDPS_WindV_IsbL-0200_RLatLon0.09_PT022H.grib2 2026-04-26 21:26 329K
20260426T18Z_MSC_RDPS_WindV_IsbL-0225_RLatLon0.09_PT022H.grib2 2026-04-26 21:26 333K
20260426T18Z_MSC_RDPS_WindV_IsbL-0250_RLatLon0.09_PT022H.grib2 2026-04-26 21:26 335K
20260426T18Z_MSC_RDPS_WindV_IsbL-0275_RLatLon0.09_PT022H.grib2 2026-04-26 21:26 373K
20260426T18Z_MSC_RDPS_WindV_IsbL-0300_RLatLon0.09_PT022H.grib2 2026-04-26 21:26 371K
20260426T18Z_MSC_RDPS_WindV_IsbL-0350_RLatLon0.09_PT022H.grib2 2026-04-26 21:26 353K
20260426T18Z_MSC_RDPS_WindV_IsbL-0400_RLatLon0.09_PT022H.grib2 2026-04-26 21:26 353K
20260426T18Z_MSC_RDPS_WindV_IsbL-0450_RLatLon0.09_PT022H.grib2 2026-04-26 21:26 454K
20260426T18Z_MSC_RDPS_WindV_IsbL-0500_RLatLon0.09_PT022H.grib2 2026-04-26 21:26 454K
20260426T18Z_MSC_RDPS_WindV_IsbL-0550_RLatLon0.09_PT022H.grib2 2026-04-26 21:26 454K
20260426T18Z_MSC_RDPS_WindV_IsbL-0600_RLatLon0.09_PT022H.grib2 2026-04-26 21:26 464K
20260426T18Z_MSC_RDPS_WindV_IsbL-0650_RLatLon0.09_PT022H.grib2 2026-04-26 21:26 485K
20260426T18Z_MSC_RDPS_WindV_IsbL-0700_RLatLon0.09_PT022H.grib2 2026-04-26 21:26 508K
20260426T18Z_MSC_RDPS_WindV_IsbL-0750_RLatLon0.09_PT022H.grib2 2026-04-26 21:26 534K
20260426T18Z_MSC_RDPS_WindV_IsbL-0800_RLatLon0.09_PT022H.grib2 2026-04-26 21:26 568K
20260426T18Z_MSC_RDPS_WindV_IsbL-0850_RLatLon0.09_PT022H.grib2 2026-04-26 21:26 620K
20260426T18Z_MSC_RDPS_WindV_IsbL-0875_RLatLon0.09_PT022H.grib2 2026-04-26 21:26 640K
20260426T18Z_MSC_RDPS_WindV_IsbL-0900_RLatLon0.09_PT022H.grib2 2026-04-26 21:26 652K
20260426T18Z_MSC_RDPS_WindV_IsbL-0925_RLatLon0.09_PT022H.grib2 2026-04-26 21:26 659K
20260426T18Z_MSC_RDPS_WindV_IsbL-0950_RLatLon0.09_PT022H.grib2 2026-04-26 21:26 655K
20260426T18Z_MSC_RDPS_WindV_IsbL-0970_RLatLon0.09_PT022H.grib2 2026-04-26 21:26 654K
20260426T18Z_MSC_RDPS_WindV_IsbL-0985_RLatLon0.09_PT022H.grib2 2026-04-26 21:26 795K
20260426T18Z_MSC_RDPS_WindV_IsbL-1000_RLatLon0.09_PT022H.grib2 2026-04-26 21:26 795K
20260426T18Z_MSC_RDPS_WindV_IsbL-1015_RLatLon0.09_PT022H.grib2 2026-04-26 21:26 790K